SCP
0 0 0 0 0 1 1 0 0 0 0 0 0 0 0 0 0 0 0 0 0 0 0 0 0 0 0 0 0 0 0 0 0 0 0 0 0 0 0 0 0 0 0
0 0 0 0 1 1 1 1 0 0 0 0 0 0 0 0 0 0 0 0 0 0 0 0 0 0 0 0 0 0 0 0 0 0 0 0 0 0 0 0 0 0 0
0 0 0 1 1 1 1 1 1 1 0 0 0 0 0 0 0 0 0 0 0 0 0 0 0 0 0 0 0 0 0 0 0 0 0 0 0 0 0 0 0 0 0
0 0 0 1 1 1 1 1 1 0 0 0 0 0 0 0 0 0 0 0 0 0 0 0 0 0 0 0 0 0 0 0 0 0 0 0 0 0 0 0 0 0 0
0 0 0 0 1 0 0 0 0 0 0 0 0 0 0 0 0 0 0 0 0 0 0 0 0 0 0 0 0 0 0 0 0 0 0 0 0 0 0 0 0 0 0
0 0 0 0 0 0 0 0 0 0 0 0 0 0 0 0 0 0 0 0 0 0 0 0 0 0 0 0 0 0 0 0 0 0 0 0 0 0 0 0 0 0 0
0 0 0 0 0 0 0 0 0 0 0 0 0 0 0 0 0 0 0 0 0 0 0 0 0 0 0 0 0 0 0 0 0 0 0 0 0 0 0 0 0 0 0
0 0 0 0 0 0 0 0 0 0 0 0 0 0 0 0 0 0 0 0 0 0 0 0 0 0 0 0 0 0 0 0 0 0 0 0 0 0 0 0 0 0 0
0 0 0 0 0 0 0 0 0 0 0 0 0 0 0 0 0 0 0 0 0 0 0 0 0 0 0 0 0 0 0 0 0 0 0 0 0 0 0 0 0 0 0
0 0 0 0 0 0 0 0 0 0 0 0 0 0 0 0 0 0 0 0 0 0 0 0 0 0 0 0 0 0 0 0 0 0 0 0 0 0 0 0 0 0 0
0 0 0 0 0 0 0 0 0 0 0 0 0 0 0 0 0 0 0 0 0 0 0 0 0 0 0 0 0 0 0 0 0 0 0 0 0 0 0 0 0 0 0
0 0 0 0 0 0 0 0 0 0 0 0 0 0 0 0 0 0 0 0 0 0 0 0 0 0 0 0 0 0 0 0 0 0 0 0 0 0 0 0 0 0 0
0 0 0 0 0 0 0 0 0 0 0 0 0 0 0 0 0 0 0 0 0 0 0 0 0 0 0 0 0 0 0 0 0 0 0 0 0 0 0 0 0 0 0
0 0 0 0 0 0 0 0 0 0 0 0 0 0 0 0 0 0 0 0 0 0 0 0 0 0 0 0 0 0 0 0 0 0 0 0 0 0 0 0 0 0 0
0 0 0 0 0 0 0 0 0 0 0 0 0 0 0 0 0 0 0 0 0 0 0 0 0 0 0 0 0 0 0 0 0 0 0 0 0 0 0 0 0 0 0
0 0 0 0 0 0 0 0 0 0 0 0 0 0 0 0 0 0 0 0 0 0 0 0 0 0 0 0 0 0 0 0 0 0 0 0 0 0 0 0 0 0 0
0 0 0 0 0 0 0 0 0 0 0 0 0 0 0 0 0 0 0 0 0 0 0 0 0 0 0 0 0 0 0 0 0 0 0 0 0 0 0 0 0 0 0
0 0 0 0 0 0 0 0 0 0 0 0 0 0 0 0 0 0 0 0 0 0 0 0 0 0 0 0 0 0 0 0 0 0 0 0 0 0 0 0 0 0 0
0 0 0 0 0 0 0 0 0 0 0 0 0 0 0 0 0 0 0 0 0 0 0 0 0 0 0 0 0 0 0 0 0 0 0 0 0 0 0 0 0 0 0
0 0 0 0 0 0 0 0 0 0 0 0 0 0 0 0 0 0 0 0 0 0 0 0 0 0 0 0 0 0 0 0 0 0 0 0 0 0 0 0 0 0 0
0 0 0 0 0 0 0 0 0 0 0 0 0 0 0 0 0 0 0 0 0 0 0 0 0 0 0 0 0 0 0 0 0 0 0 0 0 0 0 0 0 0 0
0 0 0 0 0 0 0 0 0 0 0 0 0 0 0 0 0 0 0 0 0 0 0 0 0 0 0 0 0 0 0 0 0 0 0 0 0 0 0 0 0 0 0
0 0 0 0 0 0 0 0 0 0 0 0 0 0 0 0 0 0 0 0 0 0 0 0 0 0 0 0 0 0 0 0 0 0 0 0 0 0 0 0 0 0 0
0 0 0 0 0 0 0 0 0 0 0 0 0 0 0 0 0 0 0 0 0 0 0 0 0 0 0 0 0 0 0 0 0 0 0 0 0 0 0 0 0 0 0
0 0 0 0 0 0 0 0 0 0 0 0 0 0 0 0 0 0 0 0 0 0 0 0 0 0 0 0 0 0 0 0 0 0 0 0 0 0 0 0 0 0 0
0 0 0 0 0 0 0 0 0 0 0 0 0 0 0 0 0 0 0 0 0 0 0 0 0 0 0 0 0 0 0 0 0 0 0 0 0 0 0 0 0 0 0
Wind_Speed
9 8 8 8 8 7 6 6 5 5 4 3 2 2 2 2 2 2 2 2 2 2 2 1 1 2 1 2 2 2 3 2 2 3 3 3 4 3 3 3 3 4 5
9 9 9 9 9 8 7 7 7 6 5 3 2 1 1 2 1 1 1 2 2 2 2 2 2 2 2 3 3 3 2 2 2 3 3 3 4 4 3 3 3 4 4
9 10 10 10 9 9 8 6 7 6 5 4 3 2 2 2 2 2 2 2 2 2 2 2 2 2 3 2 3 3 3 2 2 2 3 3 2 1 3 3 3 3 3
9 10 10 10 10 9 8 7 6 6 5 5 3 3 3 2 2 2 2 2 3 2 2 2 3 3 3 2 4 2 2 3 2 2 2 3 3 3 2 3 2 3 4
8 9 9 10 9 9 8 7 7 6 5 4 4 4 3 2 2 2 2 3 2 3 2 3 3 3 3 3 3 2 3 3 3 3 2 3 3 5 4 3 3 3 3
7 8 8 9 8 8 7 7 7 6 5 5 4 4 4 3 3 3 3 3 3 3 3 3 3 3 3 3 3 3 4 3 3 3 3 3 3 3 4 4 4 4 3
6 7 9 9 9 9 8 7 7 6 5 5 4 4 4 5 5 4 4 3 3 3 2 3 3 3 2 3 3 4 4 4 4 4 3 3 3 3 4 4 4 4 3
5 6 7 7 8 8 8 7 7 6 6 5 5 4 5 4 3 4 4 4 3 2 2 3 3 3 3 3 3 3 3 3 3 4 3 3 3 4 4 4 4 5 4
5 6 6 6 7 7 8 7 7 6 6 5 4 4 4 3 3 4 4 3 2 2 3 3 3 3 3 3 3 2 2 2 3 3 3 4 3 4 4 4 4 5 5
5 5 5 5 6 6 6 7 6 6 6 5 4 3 3 4 4 4 3 2 2 2 2 3 3 3 3 3 3 3 2 2 2 2 3 4 4 3 4 4 4 5 5
5 5 5 5 5 5 6 6 6 6 5 4 4 3 3 3 3 3 3 3 2 3 3 3 3 3 3 3 3 3 3 3 3 3 3 3 4 4 4 4 4 5 4
4 5 4 4 4 5 5 5 5 5 4 4 4 4 3 3 3 3 3 3 3 3 3 3 3 3 3 3 3 3 3 3 3 3 3 3 3 4 4 4 5 4 4
4 4 4 3 3 3 4 4 4 4 4 4 4 3 3 3 3 3 3 3 3 3 3 3 3 3 3 3 3 3 3 3 3 3 3 3 3 4 3 4 4 4 4
4 3 3 3 3 2 3 3 3 3 3 4 4 3 3 3 3 3 3 3 3 3 2 2 2 2 2 2 2 2 2 2 2 2 3 3 3 3 4 4 4 4 4
3 3 2 2 2 2 2 2 2 3 3 4 4 3 3 3 3 3 3 3 2 2 2 2 2 2 2 1 2 2 2 2 2 2 3 3 2 3 4 4 4 4 4
2 2 2 1 1 1 1 1 2 2 3 3 3 3 3 3 3 2 2 2 2 1 1 2 2 2 0 2 1 3 3 2 2 2 3 3 3 2 3 5 5 5 5
3 2 2 1 0 0 1 1 2 2 3 3 3 3 3 3 3 3 2 2 2 2 1 1 2 1 1 3 1 3 4 3 2 3 3 3 1 2 3 3 5 6 6
2 2 2 1 0 1 1 1 2 3 3 3 3 3 3 3 2 2 2 2 2 2 2 2 2 1 1 3 1 3 4 3 3 3 3 3 3 2 3 4 4 4 4
2 2 2 2 1 1 1 1 2 2 3 3 3 3 3 3 3 2 2 2 2 2 2 2 2 2 1 2 2 3 3 2 3 3 3 3 3 0 2 4 4 4 3
2 2 2 2 2 1 1 2 2 2 2 3 3 3 3 3 3 3 3 2 2 3 2 2 2 2 2 2 2 3 3 3 3 3 3 2 3 1 2 4 4 4 4
2 2 2 2 2 1 2 2 2 2 2 2 2 3 3 3 3 3 2 2 3 2 3 2 3 3 2 3 3 3 3 3 3 3 2 0 2 3 4 5 5 4 5
2 2 2 2 2 1 2 2 1 1 1 2 2 3 3 3 3 3 3 3 3 3 4 3 3 3 3 2 4 4 4 5 4 3 3 1 1 3 5 5 4 5 5
2 2 2 2 2 1 2 2 1 1 1 1 1 2 3 3 3 4 4 3 3 3 3 3 3 2 2 3 4 5 6 6 4 3 3 2 3 4 5 5 5 5 5
2 2 2 2 2 1 2 1 1 1 2 2 1 2 3 3 3 3 3 3 3 3 3 3 3 2 2 2 3 4 4 6 5 4 3 5 5 6 4 3 5 4 3
1 2 2 2 2 2 2 2 2 2 2 2 2 2 2 2 3 3 2 3 2 2 3 3 2 2 2 0 1 3 2 2 2 3 4 4 3 3 3 3 2 3 3
1 1 2 2 2 2 2 2 2 3 3 3 3 3 2 2 3 3 3 1 2 3 3 3 4 2 1 0 1 2 3 2 3 4 4 3 3 3 2 2 2 2 2
Wind_Direction
186 178 174 171 170 170 172 177 174 161 172 176 194 202 196 207 222 211 171 209 226 213 235 242 186 230 216 233 239 238 220 231 251 251 235 220 217 213 217 226 241 233 233
185 179 177 174 175 175 177 178 177 171 180 173 196 220 236 235 238 233 184 215 224 228 219 227 228 203 204 207 224 235 251 234 230 268 258 226 196 192 205 218 230 247 238
191 184 181 180 179 178 180 181 175 174 178 171 181 179 191 213 204 213 198 215 231 228 243 231 241 227 232 205 222 230 240 251 223 250 279 271 257 262 196 219 233 244 253
191 186 182 184 185 180 174 172 171 172 174 177 186 199 211 220 222 233 214 218 223 224 213 225 229 235 235 212 222 207 239 247 247 226 245 279 304 274 242 222 228 240 249
189 184 183 185 183 176 173 169 171 177 177 181 185 206 221 229 221 222 205 228 211 219 218 220 220 224 229 220 233 220 242 244 255 255 249 249 241 246 261 265 264 253 247
183 182 178 176 172 171 172 171 172 177 177 181 190 207 217 227 229 228 216 224 210 214 214 221 222 228 227 217 226 230 231 242 253 260 254 259 257 257 259 263 261 262 254
170 172 173 170 170 172 174 173 173 178 181 188 197 208 213 214 219 229 221 232 223 218 208 227 224 227 226 231 235 234 243 234 235 248 257 264 264 271 268 267 273 276 267
160 165 169 171 172 173 174 178 180 181 185 194 199 208 213 218 220 225 237 228 233 226 208 223 221 221 222 230 233 236 232 232 237 247 258 260 259 263 262 264 273 274 266
153 158 160 169 173 175 179 182 182 185 191 198 199 206 213 226 231 224 230 227 225 220 204 214 217 219 219 230 234 238 242 241 244 243 242 257 259 254 258 260 261 271 279
146 145 149 158 167 173 175 179 183 189 196 198 205 203 206 217 224 226 222 226 220 214 210 215 222 224 218 223 230 228 226 236 240 252 258 262 264 267 263 264 264 261 269
139 140 145 154 163 169 173 178 181 189 195 198 202 206 203 207 214 221 219 213 214 204 216 221 223 226 228 228 230 237 233 237 237 241 246 261 277 275 272 266 264 264 262
129 131 137 147 162 168 170 172 181 188 187 188 195 198 198 196 202 215 221 210 206 209 214 218 215 221 230 230 230 235 235 242 245 251 260 267 271 276 276 276 268 266 265
127 129 134 144 157 168 174 175 185 187 183 180 183 176 185 191 206 217 217 207 205 212 216 214 212 219 229 229 234 236 237 240 245 249 260 273 279 280 283 284 283 276 263
133 129 132 144 154 169 178 187 190 189 186 181 178 173 186 195 207 208 205 208 208 205 205 210 214 228 234 232 235 231 235 251 255 254 263 276 280 283 290 283 282 284 279
136 130 127 132 156 168 173 185 198 192 189 183 182 181 184 195 200 199 197 195 194 198 196 203 210 223 226 240 253 237 239 251 264 266 267 275 298 310 297 294 294 284 275
150 138 136 144 172 184 195 195 202 191 184 181 183 179 181 185 187 189 184 178 183 199 207 224 215 223 224 75 1 285 257 250 257 267 271 262 245 251 258 278 288 289 279
160 155 159 173 211 261 241 234 216 189 182 181 184 186 184 185 189 192 181 181 193 200 219 244 236 218 109 113 186 273 270 258 263 267 264 270 284 248 269 256 244 252 254
157 153 160 166 224 221 208 234 208 193 190 187 190 189 185 191 190 192 192 195 200 211 218 236 241 231 142 132 186 260 251 271 271 265 260 263 274 286 286 280 276 272 258
154 158 161 164 181 195 189 213 207 196 203 196 197 199 199 200 198 199 203 201 205 220 223 222 224 224 179 146 201 247 248 255 266 265 262 262 266 23 279 268 274 278 277
137 137 148 149 155 161 207 207 208 210 220 214 212 213 216 214 213 210 213 205 209 218 226 220 222 226 223 156 195 248 257 261 265 255 249 223 260 295 250 261 271 275 284
144 145 158 156 154 181 205 213 224 236 243 237 220 211 219 221 218 217 214 207 212 213 224 220 214 218 219 172 185 233 268 278 277 279 270 193 167 249 251 256 266 280 288
164 172 169 154 146 175 208 226 243 260 243 233 230 220 219 227 210 212 215 216 222 213 212 209 215 210 203 197 181 198 247 288 282 282 287 13 147 248 256 253 273 283 271
176 185 182 163 160 188 219 238 273 277 251 225 232 233 226 223 218 215 208 208 215 226 222 215 217 214 195 174 179 196 216 239 263 290 344 328 244 245 238 235 251 250 251
180 190 189 188 186 213 240 250 268 265 249 240 232 233 223 214 208 221 220 216 216 231 233 231 233 224 207 208 191 196 200 208 234 256 232 220 230 243 258 221 219 235 256
179 200 195 195 203 215 243 249 261 256 249 249 247 240 232 212 208 210 234 239 227 264 262 257 253 257 246 232 337 270 242 248 257 268 257 250 234 228 226 223 229 235 227
166 186 190 197 205 220 246 262 262 261 256 255 254 250 242 232 223 210 198 199 225 185 220 274 282 279 5 103 224 259 284 286 265 259 251 259 264 262 252 241 231 231 240